Glendive, MT

4:43 AM MDT on October 19, 2019 (GMT -0600)
Dawson Community

Weather History for KGDV - September, 2019

Change the Weather History Date:

Sunday, September 22, 2019

  Actual Average Record
Temperature  
Mean Temperature 57 °F 58 °F  
Max Temperature 71 °F 72 °F 84 °F (2007)
Min Temperature 42 °F 44 °F 23 °F (2000)
Degree Days  
Heating Degree Days 8 7  
Month to date heating degree days 100 43  
Year to date heating degree days 5748 4335  
Since 1 July heating degree days 182 43  
Cooling Degree Days 0 0  
Month to date cooling degree days 39 6  
Year to date cooling degree days 465 382  
Since 1 July cooling degree days 465 382  
Growing Degree Days 6 (Base 50)    
Moisture  
Dew Point 44 °F    
Average Humidity 71    
Maximum Humidity 97    
Minimum Humidity 36    
Precipitation  
Precipitation 0.00 in 0.04 in 0.34 in (2006)
Month to date precipitation 4.94 0.90  
Year to date precipitation 16.01 11.29  
Sea Level Pressure  
Sea Level Pressure 29.92 in    
Wind  
Wind Speed 8 mph (SSW)    
Max Wind Speed 13 mph    
Max Gust Speed -    
Visibility 10 miles    
Events      
T = Trace of Precipitation, MM = Missing Value Source: NWS Daily Summary

Daily Weather History Graph

Daily Weather History Graph

Search for Another Location

Airport or City:

Astronomy

Sep. 22, 2019 Rise Set
Actual Time 6:45 AM MDT 6:57 PM MDT
Civil Twilight 6:15 AM MDT 7:27 PM MDT
Nautical Twilight 5:39 AM MDT 8:03 PM MDT
Astronomical Twilight 5:02 AM MDT 8:40 PM MDT
Moon No Moon Rise 3:20 PM MDT (9/22)
Length of Visible Light 13h 12m
Length of Day
12h 11m
Last Quarter, 43% of the Moon is Illuminated
Sep 22
Last Quarter
Sep 28
New
Oct 5
First Quarter
Oct 13
Full
Oct 21
Last Quarter

Hourly Weather History & Observations

Time (MDT) Temp. Windchill Dew Point Humidity Pressure Visibility Wind Dir Wind Speed Gust Speed Precip Events Conditions
12:56 AM 45.0 °F 42.6 °F 39.9 °F 82% 29.95 in 10.0 mi SSW 4.6 mph - N/A   Clear
1:56 AM 44.1 °F 40.1 °F 41.0 °F 89% 29.96 in 10.0 mi South 6.9 mph - N/A   Clear
2:56 AM 42.1 °F 37.1 °F 41.0 °F 96% 29.94 in 10.0 mi South 8.1 mph - N/A   Clear
3:56 AM 43.0 °F 38.2 °F 41.0 °F 93% 29.94 in 10.0 mi South 8.1 mph - N/A   Clear
4:56 AM 43.0 °F 37.7 °F 41.0 °F 93% 29.93 in 10.0 mi SSW 9.2 mph - N/A   Clear
5:56 AM 43.0 °F 38.2 °F 42.1 °F 97% 29.94 in 10.0 mi South 8.1 mph - N/A   Clear
6:56 AM 43.0 °F 37.7 °F 42.1 °F 97% 29.95 in 10.0 mi South 9.2 mph - N/A   Clear
7:56 AM 45.0 °F 39.7 °F 44.1 °F 97% 29.96 in 10.0 mi South 10.4 mph - N/A   Clear
8:56 AM 52.0 °F - 48.0 °F 86% 29.95 in 10.0 mi SSW 10.4 mph - N/A   Clear
9:56 AM 57.0 °F - 50.0 °F 77% 29.94 in 10.0 mi SSW 12.7 mph - N/A   Clear
10:56 AM 61.0 °F - 48.9 °F 64% 29.94 in 10.0 mi SSW 9.2 mph - N/A   Clear
11:56 AM 64.0 °F - 51.1 °F 63% 29.92 in 10.0 mi South 8.1 mph - N/A   Clear
12:56 PM 66.9 °F - 51.1 °F 57% 29.90 in 10.0 mi SSW 11.5 mph - N/A   Clear
1:56 PM 69.1 °F - 50.0 °F 51% 29.88 in 10.0 mi SW 12.7 mph - N/A   Scattered Clouds
2:56 PM 71.1 °F - 44.1 °F 38% 29.87 in 10.0 mi West 10.4 mph - N/A   Partly Cloudy
3:56 PM 70.0 °F - 42.1 °F 36% 29.87 in 10.0 mi West 12.7 mph - N/A   Scattered Clouds
4:56 PM 69.1 °F - 44.1 °F 40% 29.88 in 10.0 mi West 8.1 mph - N/A   Clear
5:56 PM 68.0 °F - 44.1 °F 42% 29.88 in 10.0 mi WSW 6.9 mph - N/A   Clear
6:56 PM 61.0 °F - 45.0 °F 56% 29.90 in 10.0 mi SW 5.8 mph - N/A   Clear
7:56 PM 54.0 °F - 45.0 °F 72% 29.91 in 10.0 mi WSW 5.8 mph - N/A   Clear
8:56 PM 52.0 °F - 44.1 °F 74% 29.92 in 10.0 mi WSW 5.8 mph - N/A   Clear
9:56 PM 54.0 °F - 43.0 °F 66% 29.91 in 10.0 mi South 4.6 mph - N/A   Clear
10:56 PM 53.1 °F - 43.0 °F 69% 29.91 in 10.0 mi SSW 4.6 mph - N/A   Clear
11:56 PM 52.0 °F - 42.1 °F 69% 29.90 in 10.0 mi South 5.8 mph - N/A   Clear